When you browse on this site, cookies collect data to enhance your experience and personalize the content and advertising you see.
Visit our Privacy Policy to learn more. By continuing to use the site, you agree to this use of cookies and data.
  • In Hungary
  • List of Countries
  • For 7 days
  • Water Temperature
  • Weather Map
  • News
  • Weather Widgets
  • user-avatar
    Login

    Hourly Weather Kakata

    Today, 13 December, Friday

    Time Temperature Precipitation Wind Pressure Humidity
    00:00 +24°C° 0 mm 0 mps 751 mmHg 92%
    01:00 +23°C° 0 mm 0 mps 751 mmHg 93%
    02:00 +23°C° 0 mm 0 mps 750 mmHg 94%
    03:00 +23°C° 0 mm 0 mps 751 mmHg 94%
    04:00 +23°C° 0 mm 0 mps 751 mmHg 95%
    05:00 +23°C° 0 mm 0 mps 751 mmHg 94%
    06:00 +24°C° 0 mm 0 mps 752 mmHg 88%
    07:00 +26°C° 0 mm 0 mps 752 mmHg 82%
    08:00 +27°C° 0 mm 0 mps 752 mmHg 76%
    09:00 +29°C° 0 mm 0 mps 752 mmHg 69%
    10:00 +31°C° 0 mm 0 mps 752 mmHg 61%
    11:00 +33°C° 0 mm 0 mps 752 mmHg 54%
    12:00 +32°C° 0.1 mm 0 mps 751 mmHg 53%
    13:00 +34°C° 0.1 mm 1 mps 750 mmHg 51%
    14:00 +34°C° 0.1 mm 1 mps 749 mmHg 50%
    15:00 +34°C° 0.2 mm 2 mps 749 mmHg 59%
    16:00 +31°C° 0.2 mm 2 mps 750 mmHg 68%
    17:00 +29°C° 0.2 mm 2 mps 750 mmHg 77%
    18:00 +28°C° 0 mm 2 mps 750 mmHg 81%
    19:00 +27°C° 0 mm 1 mps 751 mmHg 85%
    20:00 +26°C° 0 mm 1 mps 752 mmHg 90%
    21:00 +24°C° 0 mm 0 mps 752 mmHg 91%
    22:00 +24°C° 0 mm 0 mps 752 mmHg 92%
    23:00 +24°C° 0 mm 0 mps 752 mmHg 92%

    Tomorrow, 14 December, Saturday

    Time Temperature Precipitation Wind Pressure Humidity
    00:00 +24°C° 0.3 mm 0 mps 751 mmHg 93%
    01:00 +23°C° 0.3 mm 0 mps 751 mmHg 94%
    02:00 +25°C° 0.3 mm 1 mps 751 mmHg 95%
    03:00 +25°C° 0.1 mm 1 mps 751 mmHg 95%
    04:00 +25°C° 0.1 mm 1 mps 751 mmHg 96%
    05:00 +25°C° 0.1 mm 1 mps 751 mmHg 96%
    06:00 +26°C° 0 mm 1 mps 751 mmHg 90%
    07:00 +28°C° 0 mm 1 mps 752 mmHg 84%
    08:00 +29°C° 0 mm 1 mps 752 mmHg 78%
    09:00 +31°C° 0.1 mm 1 mps 752 mmHg 69%
    10:00 +33°C° 0.1 mm 1 mps 752 mmHg 61%
    11:00 +35°C° 0.1 mm 1 mps 751 mmHg 52%
    12:00 +34°C° 1.1 mm 1 mps 751 mmHg 58%
    13:00 +32°C° 1.1 mm 2 mps 750 mmHg 65%
    14:00 +31°C° 1.1 mm 2 mps 749 mmHg 71%
    15:00 +30°C° 0.8 mm 2 mps 749 mmHg 75%
    16:00 +29°C° 0.8 mm 2 mps 750 mmHg 79%
    17:00 +28°C° 0.8 mm 2 mps 750 mmHg 84%
    18:00 +27°C° 0.1 mm 2 mps 750 mmHg 86%
    19:00 +27°C° 0.1 mm 1 mps 751 mmHg 89%
    20:00 +26°C° 0.1 mm 1 mps 752 mmHg 92%
    21:00 +26°C° 0 mm 1 mps 752 mmHg 92%
    22:00 +24°C° 0 mm 0 mps 752 mmHg 93%
    23:00 +24°C° 0 mm 0 mps 752 mmHg 94%

    Day after tomorrow, 15 December, Sunday

    Time Temperature Precipitation Wind Pressure Humidity
    00:00 +24°C° 0.2 mm 0 mps 751 mmHg 94%
    01:00 +23°C° 0.2 mm 0 mps 751 mmHg 95%
    02:00 +23°C° 0.2 mm 0 mps 751 mmHg 95%
    03:00 +23°C° 0.8 mm 0 mps 751 mmHg 96%
    04:00 +25°C° 0.8 mm 1 mps 751 mmHg 97%
    05:00 +25°C° 0.8 mm 1 mps 751 mmHg 97%
    06:00 +26°C° 0.1 mm 1 mps 751 mmHg 93%
    07:00 +27°C° 0.1 mm 1 mps 752 mmHg 88%
    08:00 +28°C° 0.1 mm 1 mps 752 mmHg 84%
    09:00 +29°C° 0 mm 0 mps 752 mmHg 74%
    10:00 +31°C° 0 mm 0 mps 752 mmHg 64%
    11:00 +34°C° 0 mm 0 mps 751 mmHg 54%
    12:00 +33°C° 0.7 mm 0 mps 751 mmHg 57%
    13:00 +34°C° 0.7 mm 1 mps 750 mmHg 60%
    14:00 +33°C° 0.7 mm 1 mps 749 mmHg 64%
    15:00 +31°C° 1.6 mm 1 mps 749 mmHg 71%
    16:00 +30°C° 1.6 mm 1 mps 749 mmHg 79%
    17:00 +28°C° 1.6 mm 2 mps 749 mmHg 86%
    18:00 +28°C° 0 mm 1 mps 750 mmHg 89%
    19:00 +27°C° 0 mm 1 mps 750 mmHg 91%
    20:00 +26°C° 0 mm 1 mps 751 mmHg 94%
    21:00 +26°C° 0 mm 1 mps 751 mmHg 94%
    22:00 +24°C° 0 mm 0 mps 751 mmHg 95%
    23:00 +24°C° 0 mm 0 mps 751 mmHg 95%

    16 December, Monday

    Time Temperature Precipitation Wind Pressure Humidity
    00:00 +24°C° 0.1 mm 0 mps 751 mmHg 95%
    01:00 +24°C° 0.1 mm 0 mps 750 mmHg 95%
    02:00 +24°C° 0.1 mm 0 mps 750 mmHg 95%
    03:00 +23°C° 0.3 mm 0 mps 750 mmHg 96%
    04:00 +25°C° 0.3 mm 1 mps 750 mmHg 96%
    05:00 +25°C° 0.3 mm 1 mps 750 mmHg 97%
    06:00 +26°C° 0 mm 1 mps 750 mmHg 92%
    07:00 +28°C° 0 mm 1 mps 751 mmHg 86%
    08:00 +29°C° 0 mm 1 mps 751 mmHg 81%
    09:00 +28°C° 0 mm 0 mps 751 mmHg 74%
    10:00 +30°C° 0 mm 0 mps 750 mmHg 66%
    11:00 +32°C° 0 mm 0 mps 750 mmHg 59%
    12:00 +33°C° 0.2 mm 1 mps 749 mmHg 60%
    13:00 +33°C° 0.2 mm 1 mps 749 mmHg 61%
    14:00 +32°C° 0.2 mm 1 mps 748 mmHg 62%
    15:00 +31°C° 0.5 mm 1 mps 748 mmHg 69%
    16:00 +30°C° 0.5 mm 1 mps 748 mmHg 76%
    17:00 +29°C° 0.5 mm 1 mps 748 mmHg 83%
    18:00 +28°C° 0.1 mm 1 mps 749 mmHg 87%
    19:00 +27°C° 0.1 mm 1 mps 749 mmHg 90%
    20:00 +26°C° 0.1 mm 1 mps 750 mmHg 93%
    21:00 +26°C° 0 mm 1 mps 750 mmHg 94%
    22:00 +26°C° 0 mm 1 mps 750 mmHg 95%
    23:00 +26°C° 0 mm 1 mps 750 mmHg 96%

    17 December, Tuesday

    Time Temperature Precipitation Wind Pressure Humidity
    00:00 +26°C° 0.2 mm 1 mps 750 mmHg 96%
    01:00 +26°C° 0.2 mm 1 mps 750 mmHg 96%
    02:00 +26°C° 0.2 mm 1 mps 749 mmHg 96%
    03:00 +24°C° 0.1 mm 0 mps 750 mmHg 96%
    04:00 +24°C° 0.1 mm 0 mps 750 mmHg 96%
    05:00 +24°C° 0.1 mm 0 mps 750 mmHg 96%
    06:00 +25°C° 0.1 mm 0 mps 750 mmHg 91%
    07:00 +26°C° 0.1 mm 0 mps 751 mmHg 87%
    08:00 +29°C° 0.1 mm 1 mps 751 mmHg 82%
    09:00 +30°C° 0.1 mm 1 mps 751 mmHg 76%
    10:00 +32°C° 0.1 mm 1 mps 751 mmHg 69%
    11:00 +33°C° 0.1 mm 1 mps 751 mmHg 62%
    12:00 +33°C° 0.3 mm 1 mps 750 mmHg 63%
    13:00 +33°C° 0.3 mm 1 mps 749 mmHg 63%
    14:00 +34°C° 0.3 mm 2 mps 749 mmHg 63%
    15:00 +31°C° 0.3 mm 2 mps 749 mmHg 69%
    16:00 +30°C° 0.3 mm 2 mps 749 mmHg 75%
    17:00 +29°C° 0.3 mm 2 mps 749 mmHg 81%
    18:00 +28°C° 0 mm 1 mps 749 mmHg 85%
    19:00 +27°C° 0 mm 1 mps 750 mmHg 88%
    20:00 +26°C° 0 mm 1 mps 750 mmHg 92%
    21:00 +26°C° 0 mm 1 mps 750 mmHg 92%
    22:00 +24°C° 0 mm 0 mps 750 mmHg 93%
    23:00 +23°C° 0 mm 0 mps 750 mmHg 94%

    18 December, Wednesday

    Time Temperature Precipitation Wind Pressure Humidity
    00:00 +23°C° 0 mm 0 mps 750 mmHg 94%
    01:00 +23°C° 0 mm 0 mps 750 mmHg 95%
    02:00 +23°C° 0 mm 0 mps 750 mmHg 95%
    03:00 +23°C° 0 mm 0 mps 750 mmHg 96%
    04:00 +23°C° 0 mm 0 mps 750 mmHg 96%
    05:00 +23°C° 0 mm 0 mps 750 mmHg 96%
    06:00 +24°C° 0 mm 0 mps 751 mmHg 91%
    07:00 +25°C° 0 mm 0 mps 751 mmHg 87%
    08:00 +26°C° 0 mm 0 mps 752 mmHg 82%
    09:00 +28°C° 0 mm 0 mps 752 mmHg 73%
    10:00 +30°C° 0 mm 0 mps 752 mmHg 64%
    11:00 +32°C° 0 mm 0 mps 752 mmHg 55%
    12:00 +34°C° 0 mm 1 mps 751 mmHg 54%
    13:00 +34°C° 0 mm 1 mps 750 mmHg 53%
    14:00 +34°C° 0 mm 1 mps 750 mmHg 52%
    15:00 +33°C° 0.2 mm 1 mps 750 mmHg 60%
    16:00 +31°C° 0.2 mm 2 mps 750 mmHg 69%
    17:00 +29°C° 0.2 mm 2 mps 750 mmHg 78%
    18:00 +28°C° 0.1 mm 2 mps 750 mmHg 82%
    19:00 +27°C° 0.1 mm 1 mps 751 mmHg 86%
    20:00 +26°C° 0.1 mm 1 mps 751 mmHg 91%
    21:00 +26°C° 0 mm 1 mps 751 mmHg 92%
    22:00 +26°C° 0 mm 1 mps 751 mmHg 93%
    23:00 +26°C° 0 mm 1 mps 751 mmHg 93%
    Show more